GEFSMA_con_probscp_054.txt.gz
Probability
24 20 15 11 8 7 8 10 9 7 7 7 6 4 2 1 0 0 0 2 3 4 5 5 4 3 4 7 11 13 15 14 10 6 4 3 3 3 1 0 0 0 0
36 31 26 22 19 19 21 20 18 15 14 12 9 6 4 4 3 2 3 5 5 5 5 5 7 8 9 13 16 18 18 16 13 10 6 4 3 3 2 1 0 0 0
48 49 48 44 41 41 41 38 35 35 32 26 20 15 11 9 9 8 10 12 9 6 5 7 10 13 15 19 22 23 23 20 17 15 11 6 3 3 2 1 0 0 0
57 64 68 65 63 64 63 59 58 58 54 46 35 26 19 17 17 17 19 20 14 7 5 6 9 13 16 21 22 23 26 24 19 16 14 8 4 2 1 0 0 0 0
66 73 77 76 74 77 78 76 74 72 66 57 44 30 24 25 26 23 23 23 18 10 4 3 5 9 14 17 19 22 25 25 21 17 14 10 7 4 1 0 0 0 0
66 70 75 76 78 81 82 80 78 73 66 57 42 28 23 25 27 24 21 21 18 11 5 4 4 7 11 14 16 22 26 25 22 18 13 10 10 7 3 0 0 0 0
54 56 62 70 76 80 79 77 75 71 64 53 41 29 20 16 17 18 16 14 12 9 6 5 7 9 11 13 15 21 27 28 25 19 13 10 10 9 5 1 0 0 0
39 43 49 58 66 70 71 69 69 67 60 50 42 33 21 11 7 8 9 6 4 5 5 4 6 9 12 13 13 17 23 26 25 20 14 11 10 8 5 2 1 0 0
27 31 36 42 50 55 58 59 59 60 56 47 40 34 26 15 6 3 3 2 1 2 4 3 3 6 10 11 10 10 11 14 18 17 14 11 8 6 4 3 2 1 0
14 17 21 25 32 37 41 43 47 49 49 44 37 31 27 19 9 3 1 0 0 2 2 2 2 4 7 8 7 4 3 3 7 11 11 9 6 4 3 2 2 2 1
4 5 8 11 16 20 24 29 33 35 38 38 35 30 26 21 13 6 2 1 0 1 1 0 1 3 5 5 4 2 0 0 2 4 6 6 5 3 2 1 1 2 2
0 1 1 3 4 7 12 18 22 25 27 29 30 29 25 21 17 10 5 3 1 0 0 0 1 2 2 2 2 1 0 0 0 1 2 3 4 3 1 1 1 1 1
0 0 0 0 0 1 4 9 15 18 19 18 20 22 22 19 17 11 8 6 3 1 0 0 1 1 1 1 0 0 0 0 0 0 0 1 1 1 1 0 0 1 1
0 0 0 0 0 0 1 3 8 13 13 10 10 14 15 14 13 10 8 7 4 1 0 0 0 0 0 0 0 0 0 0 0 0 0 0 0 0 0 0 0 0 1
0 0 0 0 0 0 0 0 3 8 10 8 7 9 9 8 9 8 6 5 4 2 1 0 0 0 0 0 0 0 0 0 0 0 0 0 0 0 0 0 0 0 0
0 0 0 0 0 0 0 0 1 4 8 8 7 5 4 4 5 5 4 2 2 2 1 0 0 0 0 0 0 0 0 0 0 0 0 0 0 0 0 0 0 0 0
0 0 0 0 0 0 0 0 0 1 4 5 5 3 2 2 2 3 2 1 1 1 0 0 0 0 0 0 0 0 0 0 0 0 0 0 0 0 0 0 0 0 0
0 0 0 0 0 0 0 0 0 0 1 2 2 2 1 1 1 1 1 1 0 0 0 0 0 0 0 0 0 0 0 0 0 0 0 0 0 0 0 0 0 0 0
0 0 0 0 0 0 0 0 0 0 0 0 1 2 2 1 0 0 0 0 0 0 0 0 0 0 0 0 0 0 0 0 0 0 0 0 0 0 0 0 0 0 0
0 0 0 0 0 0 0 0 0 0 0 0 1 2 2 1 0 0 0 0 0 0 0 0 0 0 0 0 0 0 0 0 0 0 0 0 0 0 0 0 0 0 0
0 0 0 0 0 0 0 0 0 0 0 0 0 1 1 1 0 0 0 0 0 0 0 0 0 0 0 0 0 0 0 0 0 0 0 0 0 0 0 0 0 0 0
0 0 0 0 0 0 0 0 0 0 0 0 0 0 0 0 0 0 0 0 0 0 0 0 0 0 0 0 0 0 0 0 0 0 0 0 0 0 0 0 0 0 0
0 0 0 0 0 0 0 0 0 0 0 0 0 0 0 0 0 0 0 0 0 0 0 0 0 0 0 0 0 0 0 0 0 0 0 0 0 0 0 0 0 0 0
0 0 0 0 0 0 0 0 0 0 0 0 0 0 0 0 0 0 0 0 0 0 0 0 0 0 0 0 0 0 0 0 0 0 0 0 0 0 0 0 0 0 0
0 0 0 0 0 0 0 0 0 0 0 0 0 0 0 0 0 0 0 0 0 0 0 0 0 0 0 0 0 0 0 0 0 0 0 0 0 0 0 0 0 0 0
0 0 0 0 0 0 0 0 0 0 0 0 0 0 0 0 0 0 0 0 0 0 0 0 0 0 0 0 0 0 0 0 0 0 0 0 0 0 0 0 0 0 0

GEFSMA_con_probscp_060.txt.gz
Probability
27 30 40 43 38 37 42 37 31 30 30 22 12 8 9 11 14 18 25 34 33 23 11 4 4 6 8 10 11 11 11 13 16 18 16 10 6 3 1 0 0 0 0
31 34 39 43 44 47 54 51 43 42 42 33 22 18 20 22 24 25 27 33 35 27 17 11 9 9 9 10 11 12 16 19 22 24 22 16 10 6 3 0 0 0 0
34 38 42 46 52 56 64 66 60 59 60 53 45 42 44 43 39 35 35 39 40 34 29 26 24 19 14 12 13 17 23 28 34 37 34 26 17 10 6 3 1 0 0
36 41 48 52 57 61 67 72 73 74 76 73 69 66 65 61 52 44 44 49 50 45 44 46 44 36 24 16 16 23 32 39 46 49 45 35 24 15 10 6 2 1 0
35 41 46 49 56 62 67 73 80 84 86 83 78 73 71 68 61 51 48 51 55 53 51 55 56 48 33 23 22 29 39 47 53 54 50 42 32 21 13 8 4 1 0
30 35 36 39 49 58 63 68 75 81 84 82 75 69 67 65 60 54 49 49 50 49 49 52 57 54 42 31 26 32 41 49 55 55 51 46 37 26 16 9 4 2 1
24 26 28 32 41 48 52 57 65 71 75 77 74 68 62 58 54 50 48 46 43 43 44 46 53 57 53 40 31 31 37 46 52 52 49 46 39 29 19 11 6 3 2
16 18 23 27 33 38 40 47 57 64 69 73 74 69 61 56 53 48 44 42 40 40 39 38 44 53 55 49 37 29 32 42 46 46 46 44 38 28 19 12 8 5 4
11 14 18 22 26 28 31 38 49 59 63 65 68 69 64 60 56 51 44 40 40 39 35 31 33 40 46 49 42 28 26 33 37 38 40 40 33 23 16 11 9 7 6
7 10 12 15 17 18 21 27 37 47 52 52 57 62 62 59 56 52 46 42 40 37 33 29 29 33 38 45 44 30 19 19 23 28 33 34 27 18 12 10 10 9 7
3 4 5 6 8 10 12 16 24 31 37 41 45 50 52 52 51 50 46 44 42 40 35 33 33 33 37 43 41 28 14 8 9 16 25 26 21 17 14 12 11 9 7
2 2 1 1 3 4 5 7 12 16 22 29 36 41 45 48 49 48 46 44 46 44 39 37 37 36 37 40 33 19 9 3 3 7 13 15 13 13 14 13 12 10 8
3 3 2 1 1 1 1 2 3 6 10 17 24 32 40 45 47 47 45 43 44 42 37 33 34 35 36 37 28 12 4 2 1 2 3 4 4 6 8 9 8 7 6
6 7 5 2 0 0 0 0 1 1 3 7 11 18 29 37 41 43 43 42 38 33 29 28 30 30 34 35 24 10 4 1 0 0 0 0 1 1 2 3 3 3 3
17 16 11 5 1 0 0 0 0 0 1 2 4 8 18 28 35 38 41 42 38 32 28 27 27 27 29 27 17 10 6 2 0 0 0 0 0 0 0 0 0 0 1
32 26 18 10 4 1 1 0 0 0 0 1 2 4 9 19 29 36 39 40 40 36 30 26 25 25 24 17 11 10 8 3 0 0 0 0 0 0 0 0 0 0 0
38 31 21 14 7 3 2 1 0 0 0 0 1 1 4 12 24 33 36 36 36 35 28 21 19 21 20 14 10 8 6 3 1 0 0 0 0 0 0 0 0 0 0
37 30 22 14 7 3 2 1 0 0 0 0 0 0 1 7 17 25 28 28 28 26 21 15 13 13 13 11 8 6 3 1 0 0 0 0 0 0 0 0 0 0 0
34 28 22 14 7 3 2 1 0 0 0 0 0 0 1 3 9 15 18 20 19 18 16 13 8 7 6 5 4 2 1 0 0 0 0 0 0 0 0 0 0 0 0
28 24 20 14 8 4 2 1 0 0 0 0 0 0 0 1 4 8 12 14 14 13 13 11 7 3 2 1 1 0 0 0 0 0 0 0 0 0 0 0 0 0 0
21 18 14 11 7 4 2 1 0 0 0 0 0 0 0 0 1 3 6 10 11 11 11 8 4 2 1 0 0 0 0 0 0 0 0 0 0 0 0 0 0 0 0
19 16 11 8 5 3 1 0 0 0 0 0 0 0 0 0 0 1 2 4 6 7 7 4 1 0 0 0 0 0 0 0 0 0 0 0 0 0 0 0 0 0 0
17 15 10 5 3 2 1 0 0 0 0 0 0 0 0 0 0 0 0 1 1 2 3 2 1 0 0 0 0 0 0 0 0 0 0 0 0 0 0 0 0 0 0
11 10 7 3 1 1 0 0 0 0 0 0 0 0 0 0 0 0 0 0 0 0 0 0 0 0 0 0 0 0 0 0 0 0 0 0 0 0 0 0 0 0 0
4 4 3 1 0 0 0 0 0 0 0 0 0 0 0 0 0 0 0 0 0 0 0 0 0 0 0 0 0 0 0 0 0 0 0 0 0 0 0 0 0 0 0
1 2 2 1 0 0 0 0 0 0 0 0 0 0 0 0 0 0 0 0 0 0 0 0 0 0 0 0 0 0 0 0 0 0 0 0 0 0 0 0 0 0 0

GEFSMA_con_probscp_066.txt.gz
Probability
85 83 85 86 83 79 81 83 78 74 73 68 64 64 65 64 60 62 72 80 84 88 87 81 72 61 47 34 23 19 20 22 22 22 20 20 19 16 14 10 6 3 1
89 88 87 85 81 78 80 82 80 76 73 72 71 70 70 67 65 68 75 81 83 85 84 81 76 68 57 45 34 28 27 28 28 26 24 23 22 20 20 17 11 6 2
86 86 85 82 78 76 79 81 79 75 70 71 73 73 72 71 71 72 76 79 80 80 81 82 79 73 67 60 52 46 41 38 37 35 33 31 27 25 24 23 20 12 6
73 74 75 76 74 73 75 74 72 71 67 66 66 66 68 72 72 71 70 72 73 75 78 80 79 75 71 70 69 63 57 52 48 46 46 43 36 29 25 26 26 20 13
56 57 60 62 62 64 66 63 63 65 65 61 55 55 62 67 67 64 61 60 63 68 72 74 75 74 71 74 77 76 70 65 60 56 54 53 46 37 31 29 29 25 20
43 42 43 43 44 47 52 53 52 55 58 55 46 44 51 58 59 57 54 52 53 58 61 64 69 72 69 71 78 81 77 72 67 62 58 55 53 47 40 34 29 24 21
34 31 29 29 29 32 37 40 43 43 44 47 45 40 39 45 51 54 55 52 49 48 50 54 62 69 69 68 70 73 73 71 69 66 61 56 54 52 48 40 29 21 17
27 23 21 21 21 22 25 29 33 33 32 37 45 42 34 35 42 49 53 52 47 42 42 46 53 61 66 66 61 55 57 63 65 66 65 59 54 51 49 44 32 19 12
24 22 19 18 17 16 18 21 25 26 24 27 36 40 35 31 34 38 41 43 42 40 38 39 41 47 53 56 52 43 40 45 53 59 63 61 54 49 45 41 33 21 13
31 28 23 21 19 15 13 13 15 17 15 15 21 28 30 29 28 26 25 28 34 37 38 35 33 36 40 42 43 38 30 28 35 44 51 53 50 43 37 33 29 23 19
47 40 33 30 26 19 14 12 11 9 8 7 10 15 19 22 22 18 14 15 22 31 36 36 33 31 31 32 33 30 23 18 20 26 32 37 39 35 29 25 24 23 21
61 55 49 47 40 29 21 17 12 8 6 7 7 7 10 13 15 13 9 6 10 19 30 35 33 29 27 28 25 19 13 10 9 12 17 23 27 27 23 20 19 20 19
69 66 62 58 52 41 32 23 16 10 8 8 7 5 6 8 9 8 6 4 4 9 18 26 30 29 28 29 24 12 5 3 2 4 8 12 15 17 16 15 15 15 15
67 67 64 59 56 50 42 33 22 14 10 9 5 4 5 6 7 6 4 4 3 4 9 17 25 28 30 30 20 9 4 1 0 0 2 3 4 6 7 7 8 8 8
66 64 61 58 57 55 50 42 29 18 14 10 6 5 5 7 6 4 3 3 3 2 5 11 17 22 25 21 13 8 5 1 0 0 0 0 0 1 1 1 1 1 2
66 63 60 59 59 58 55 47 33 22 17 12 8 6 5 6 5 3 2 2 1 1 2 6 12 16 16 12 8 7 4 1 0 0 0 0 0 0 0 0 0 0 0
53 54 56 59 59 56 53 46 33 23 16 10 6 4 4 4 3 3 2 1 1 1 1 4 9 12 12 8 6 5 2 0 0 0 0 0 0 0 0 0 0 0 0
34 37 44 50 52 50 47 41 32 23 16 8 4 3 2 2 3 3 1 1 1 1 1 3 6 8 8 6 4 2 1 0 0 0 0 0 0 0 0 0 0 0 0
23 25 28 33 38 41 40 35 30 26 18 9 4 3 1 2 3 3 1 1 2 2 2 2 2 4 5 5 3 1 0 0 0 0 0 0 0 0 0 0 0 0 0
16 17 19 20 24 27 28 27 27 25 17 9 4 2 1 2 2 2 2 2 2 2 2 1 1 2 4 4 1 0 0 0 0 0 0 0 0 0 0 0 0 0 0
10 13 14 14 14 12 11 15 19 19 14 8 3 1 0 1 1 1 1 1 1 1 1 0 0 2 3 3 1 0 0 0 0 0 0 0 0 0 0 0 0 0 0
8 10 11 10 8 5 3 5 9 11 10 7 3 1 0 0 0 0 0 0 0 0 0 0 0 1 1 1 0 0 0 0 0 0 0 0 0 0 0 0 0 0 0
4 6 8 7 6 4 1 1 3 5 7 7 4 1 0 0 0 0 0 0 0 0 0 0 0 0 0 0 0 0 0 0 0 0 0 0 0 0 0 0 0 0 0
1 2 4 5 6 4 1 0 0 1 3 4 3 2 0 0 0 0 0 0 0 0 0 0 0 0 0 0 0 0 0 0 0 0 0 0 0 0 0 0 0 0 0
0 0 1 2 3 2 1 0 0 0 1 2 1 1 0 0 0 0 0 0 0 0 0 0 0 0 0 0 0 0 0 0 0 0 0 0 0 0 0 0 0 0 0
0 0 0 0 1 1 0 0 0 0 1 1 1 0 0 0 0 0 0 0 0 0 0 0 0 0 0 0 0 0 0 0 0 0 0 0 0 0 0 0 0 0 0

GEFSMA_con_probscp_072.txt.gz
Probability
15 12 10 12 15 15 14 15 14 14 14 13 11 9 9 11 11 8 3 5 14 22 31 45 59 62 56 47 36 21 8 4 4 3 1 0 0 0 0 0 1 0 0
21 19 17 19 20 18 17 16 15 14 13 13 11 10 10 11 9 5 3 5 13 20 27 42 56 59 55 48 39 26 14 7 5 4 2 0 0 1 1 2 2 2 1
29 27 25 24 24 22 20 18 16 14 12 11 9 8 9 8 5 2 1 4 10 15 21 33 45 49 48 44 37 31 23 15 10 7 4 2 1 2 4 4 5 4 2
33 31 27 25 23 22 19 16 13 12 9 6 4 3 4 4 2 0 0 3 7 12 16 23 30 35 36 34 31 30 28 26 21 15 9 5 2 3 4 5 6 5 3
33 31 26 22 20 18 15 13 10 8 5 3 1 0 1 1 0 0 0 2 5 9 15 17 20 25 26 25 26 24 27 33 32 25 17 9 4 3 4 5 6 6 5
29 27 22 17 14 13 12 9 7 5 4 2 1 0 0 0 0 0 0 1 2 6 12 15 17 20 20 20 21 21 24 33 37 33 25 15 8 6 5 4 4 5 6
22 18 14 11 10 10 9 6 4 4 3 2 1 0 0 0 0 0 0 0 1 3 7 11 14 15 15 16 17 18 22 29 35 34 29 21 15 11 7 4 3 4 6
17 12 7 7 8 8 5 2 1 1 1 1 1 0 0 0 0 0 0 0 0 1 3 5 7 8 10 11 12 15 20 27 31 32 30 25 20 16 11 7 6 5 5
14 10 6 6 7 6 3 1 0 0 0 0 0 0 0 0 0 0 0 0 0 0 1 1 2 3 4 7 9 12 17 22 26 28 28 26 24 20 15 12 10 9 8
12 10 7 7 6 3 1 0 0 0 0 0 0 0 0 0 0 0 0 0 0 0 0 0 0 0 1 4 5 7 11 14 18 21 23 24 23 21 17 15 13 13 13
11 11 10 8 6 3 1 0 0 0 0 0 0 0 0 0 0 0 0 0 0 0 0 0 0 0 1 2 3 4 7 8 10 12 14 16 18 17 16 15 13 13 15
11 11 10 7 5 4 2 1 0 0 0 0 0 0 0 0 0 0 0 0 0 0 0 0 0 0 0 1 2 3 5 4 4 5 6 7 10 13 14 15 14 12 12
9 8 6 5 5 4 4 3 1 0 0 0 0 0 0 0 0 0 0 0 0 0 0 0 0 0 0 1 2 3 3 2 1 1 2 2 5 8 11 12 12 10 9
4 3 2 3 4 5 5 4 1 0 0 0 0 0 0 0 0 0 0 0 0 0 0 0 0 0 0 0 1 2 2 2 1 1 0 0 1 3 5 6 6 5 5
1 1 1 1 2 4 5 3 1 0 0 0 0 0 0 0 0 0 0 0 0 0 0 0 0 0 0 0 0 1 1 1 1 0 0 0 0 1 1 1 1 1 2
2 2 1 0 0 1 3 3 1 0 0 0 0 0 0 0 0 0 0 0 0 0 0 0 0 0 0 0 0 0 0 0 0 0 0 0 0 0 0 0 0 0 1
1 1 1 0 0 0 1 2 2 1 0 0 0 0 0 0 0 0 0 0 0 0 0 0 0 0 0 0 0 0 0 0 0 0 0 0 0 0 0 0 0 0 0
0 0 0 0 0 0 0 1 2 1 0 0 0 0 0 0 0 0 0 0 0 0 0 0 0 0 0 0 0 0 0 0 0 0 0 0 0 0 0 0 0 0 0
0 0 0 0 0 0 0 0 1 1 0 0 0 0 0 0 0 0 0 0 0 0 0 0 0 0 0 0 0 0 0 0 0 0 0 0 0 0 0 0 0 0 0
0 0 0 0 0 0 0 0 0 0 0 0 0 0 0 0 0 0 0 0 0 0 0 0 0 0 0 0 0 0 0 0 0 0 0 0 0 0 0 0 0 0 0
0 0 0 0 0 0 0 0 0 0 0 0 0 0 0 0 0 0 0 0 0 0 0 0 0 0 0 0 0 0 0 0 0 0 0 0 0 0 0 0 0 0 0
0 0 0 0 0 0 0 0 0 0 0 0 0 0 0 0 0 0 0 0 0 0 0 0 0 0 0 0 0 0 0 0 0 0 0 0 0 0 0 0 0 0 0
0 0 0 0 0 0 0 0 0 0 0 0 0 0 0 0 0 0 0 0 0 0 0 0 0 0 0 0 0 0 0 0 0 0 0 0 0 0 0 0 0 0 0
0 0 0 0 0 0 0 0 0 0 0 0 0 0 0 0 0 0 0 0 0 0 0 0 0 0 0 0 0 0 0 0 0 0 0 0 0 0 0 0 0 0 0
0 0 0 0 0 0 0 0 0 0 0 0 0 0 0 0 0 0 0 0 0 0 0 0 0 0 0 0 0 0 0 0 0 0 0 0 0 0 0 0 0 0 0
0 0 0 0 0 0 0 0 0 0 0 0 0 0 0 0 0 0 0 0 0 0 0 0 0 0 0 0 0 0 0 0 0 0 0 0 0 0 0 0 0 0 0

GEFSMA_con_probscp_078.txt.gz
Probability
11 8 4 1 0 1 2 2 3 2 1 1 2 1 0 1 2 2 2 2 5 9 8 5 4 3 3 3 7 10 13 14 15 11 6 4 2 1 0 0 0 0 0
11 9 5 1 1 2 4 4 4 3 2 2 2 2 1 1 2 2 1 1 3 6 7 6 6 5 3 4 7 11 15 18 18 14 9 7 5 2 1 0 0 0 0
14 13 8 3 3 5 8 9 8 7 5 4 2 3 2 2 2 3 2 1 1 3 5 6 6 7 7 7 9 12 15 21 24 22 17 13 9 6 4 2 1 0 0
19 17 12 7 6 8 10 11 10 9 8 5 3 3 3 1 1 2 1 1 1 2 3 4 4 8 12 11 11 12 16 21 26 31 30 22 13 9 7 6 4 2 1
19 18 14 11 9 9 9 10 9 7 6 5 3 3 2 1 0 0 0 0 1 2 3 3 4 7 11 13 15 17 20 23 26 33 39 34 22 14 9 7 5 3 2
17 16 13 10 9 9 8 8 7 5 3 3 2 2 1 0 0 0 0 0 0 1 2 2 4 5 6 9 15 22 26 27 27 32 40 40 30 18 11 7 4 3 2
16 15 11 7 7 8 8 6 5 4 3 1 1 1 0 0 0 0 0 0 0 1 1 1 3 3 3 4 10 19 27 29 29 32 37 38 30 20 14 9 5 1 1
13 12 9 5 4 4 4 3 3 3 2 1 0 0 0 0 0 0 0 0 0 0 0 0 1 1 1 2 6 12 20 24 26 30 32 32 26 20 19 16 9 3 1
9 9 7 4 2 1 1 1 1 1 1 0 0 0 0 0 0 0 0 0 0 0 0 0 0 0 0 1 3 7 11 14 18 23 26 28 26 24 24 23 19 11 6
7 6 4 2 1 0 0 0 0 0 0 0 0 0 0 0 0 0 0 0 0 0 0 0 0 0 0 0 1 2 3 5 9 14 19 25 29 29 28 28 28 23 17
3 2 2 1 0 0 0 0 0 0 0 0 0 0 0 0 0 0 0 0 0 0 0 0 0 0 0 0 0 0 0 1 3 6 11 18 25 28 29 30 32 32 29
1 0 0 0 0 0 0 0 0 0 0 0 0 0 0 0 0 0 0 0 0 0 0 0 0 0 0 0 0 0 0 0 0 1 3 8 14 20 24 27 33 37 37
0 0 0 0 0 0 0 0 0 0 0 0 0 0 0 0 0 0 0 0 0 0 0 0 0 0 0 0 0 0 0 0 0 0 0 2 5 10 15 20 28 35 37
0 0 0 0 0 0 0 0 0 0 0 0 0 0 0 0 0 0 0 0 0 0 0 0 0 0 0 0 0 0 0 0 0 0 0 0 1 4 6 10 16 22 25
0 0 0 0 0 0 0 0 0 0 0 0 0 0 0 0 0 0 0 0 0 0 0 0 0 0 0 0 0 0 0 0 0 0 0 0 0 1 1 2 4 7 9
0 0 0 0 0 0 0 0 0 0 0 0 0 0 0 0 0 0 0 0 0 0 0 0 0 0 0 0 0 0 0 0 0 0 0 0 0 0 0 0 0 1 2
0 0 0 0 0 0 0 0 0 0 0 0 0 0 0 0 0 0 0 0 0 0 0 0 0 0 0 0 0 0 0 0 0 0 0 0 0 0 0 0 0 0 0
0 0 0 0 0 0 0 0 0 0 0 0 0 0 0 0 0 0 0 0 0 0 0 0 0 0 0 0 0 0 0 0 0 0 0 0 0 0 0 0 0 0 0
0 0 0 0 0 0 0 0 0 0 0 0 0 0 0 0 0 0 0 0 0 0 0 0 0 0 0 0 0 0 0 0 0 0 0 0 0 0 0 0 0 0 0
0 0 0 0 0 0 0 0 0 0 0 0 0 0 0 0 0 0 0 0 0 0 0 0 0 0 0 0 0 0 0 0 0 0 0 0 0 0 0 0 0 0 0
0 0 0 0 0 0 0 0 0 0 0 0 0 0 0 0 0 0 0 0 0 0 0 0 0 0 0 0 0 0 0 0 0 0 0 0 0 0 0 0 0 0 0
0 0 0 0 0 0 0 0 0 0 0 0 0 0 0 0 0 0 0 0 0 0 0 0 0 0 0 0 0 0 0 0 0 0 0 0 0 0 0 0 0 0 0
0 0 0 0 0 0 0 0 0 0 0 0 0 0 0 0 0 0 0 0 0 0 0 0 0 0 0 0 0 0 0 0 0 0 0 0 0 0 0 0 0 0 0
0 0 0 0 0 0 0 0 0 0 0 0 0 0 0 0 0 0 0 0 0 0 0 0 0 0 0 0 0 0 0 0 0 0 0 0 0 0 0 0 0 0 0
0 0 0 0 0 0 0 0 0 0 0 0 0 0 0 0 0 0 0 0 0 0 0 0 0 0 0 0 0 0 0 0 0 0 0 0 0 0 0 0 0 0 0
0 0 0 0 0 0 0 0 0 0 0 0 0 0 0 0 0 0 0 0 0 0 0 0 0 0 0 0 0 0 0 0 0 0 0 0 0 0 0 0 0 0 0

GEFSMA_con_probscp_084.txt.gz
Probability
61 61 60 52 41 34 30 25 20 18 16 11 7 4 2 0 1 6 16 22 17 9 5 3 2 3 6 9 9 9 9 7 4 4 5 4 2 0 0 0 1 0 0
64 65 61 54 46 41 37 30 22 18 17 13 9 7 4 2 2 4 9 14 13 9 5 4 4 5 7 8 9 11 13 12 9 8 7 6 3 1 0 0 1 1 0
61 62 59 54 51 49 45 37 26 20 18 15 13 12 11 9 7 6 7 11 12 9 7 6 6 7 8 8 10 14 17 18 16 13 10 9 6 2 1 1 1 1 1
46 50 52 50 49 47 44 38 29 22 18 15 14 16 18 17 14 12 13 14 15 14 13 11 9 9 10 11 15 21 24 24 20 16 14 13 11 6 3 2 1 1 1
31 36 41 41 40 39 36 33 29 23 18 14 13 15 17 17 17 17 17 16 16 18 19 16 13 11 13 16 20 26 29 27 23 20 19 18 15 12 9 5 3 2 1
24 27 31 32 32 32 30 28 25 20 15 12 12 13 13 13 12 14 15 14 13 15 18 19 18 15 14 16 20 24 28 29 27 27 26 23 19 18 17 11 6 3 1
23 24 27 28 28 27 25 21 18 14 10 11 12 11 11 9 7 8 11 12 9 9 12 15 17 16 15 15 16 18 22 28 31 33 33 30 27 26 25 20 13 6 2
20 19 22 25 24 21 17 13 10 9 8 10 11 10 8 6 4 4 7 8 7 6 6 8 10 12 14 14 13 12 15 22 29 33 34 35 34 33 32 28 21 11 5
15 13 15 18 17 14 12 10 7 7 8 9 10 9 7 4 4 4 5 6 6 5 3 2 4 6 8 10 9 6 8 14 20 26 32 36 34 31 30 29 23 14 8
10 9 9 12 13 12 11 10 9 11 11 12 14 13 9 6 5 5 4 4 4 3 1 0 1 2 4 5 4 3 3 6 9 16 27 34 34 28 24 22 20 17 14
5 4 6 9 12 12 12 12 12 16 18 20 21 20 17 12 7 5 4 3 2 1 1 0 0 1 2 3 3 2 1 1 2 6 15 24 26 25 21 18 17 19 19
1 1 2 5 8 10 12 15 18 22 25 28 29 27 24 17 11 8 8 6 4 3 2 1 0 0 1 1 1 1 0 0 0 1 5 9 13 16 17 17 18 21 22
0 0 0 1 3 6 9 16 22 26 29 31 31 31 28 22 17 14 13 10 8 6 3 1 0 0 0 0 0 0 0 0 0 0 0 1 3 7 11 14 17 20 22
0 0 0 0 0 2 5 10 18 23 27 31 31 32 31 26 23 21 19 15 12 9 5 2 1 0 0 0 0 0 0 0 0 0 0 0 0 2 5 8 11 13 14
0 0 0 0 0 0 2 5 9 15 22 28 31 32 31 30 29 27 25 23 18 12 7 5 3 2 1 1 1 1 1 0 0 0 0 0 0 0 1 2 3 5 5
0 0 0 0 0 1 2 3 5 8 14 21 26 29 31 33 33 30 28 27 23 17 11 7 7 5 3 2 2 1 1 0 0 0 0 0 0 0 0 0 0 1 1
0 0 0 0 0 1 2 2 3 4 6 10 15 19 25 30 31 30 27 25 24 21 14 10 9 8 6 5 3 2 1 1 1 1 0 0 0 0 0 0 0 0 0
1 0 0 0 0 0 1 1 1 1 1 2 5 9 13 19 24 27 26 23 20 18 14 11 11 10 8 6 4 2 1 2 3 1 0 0 0 0 0 0 0 0 0
2 1 1 0 0 0 0 0 0 0 0 0 1 2 5 8 14 21 24 22 17 14 14 12 11 11 8 6 5 2 1 2 2 1 0 0 0 0 0 0 0 0 0
3 3 2 1 0 0 0 0 0 0 0 0 0 0 1 3 6 11 17 19 17 15 14 13 12 10 7 5 5 4 2 2 1 0 0 0 0 0 0 0 0 0 0
3 3 3 1 0 0 0 1 0 0 0 0 0 0 0 0 1 2 7 12 14 14 14 13 12 9 5 4 6 5 2 1 0 0 0 0 0 0 0 0 0 0 0
2 2 1 0 0 0 0 0 0 0 0 0 0 0 0 0 0 0 1 4 6 8 11 13 13 9 5 4 5 5 2 1 1 0 0 0 0 0 0 0 0 0 0
1 1 0 0 0 0 0 0 0 0 0 0 0 0 0 0 0 0 0 0 1 2 5 10 12 10 7 6 6 5 4 3 2 1 0 0 0 0 0 0 0 0 0
1 1 0 0 0 0 0 0 0 0 0 0 0 0 0 0 0 0 0 0 0 0 1 4 8 7 6 7 8 7 6 4 3 2 0 0 0 0 0 0 0 0 0
2 1 0 0 0 0 0 0 0 0 0 0 0 0 0 0 0 0 0 0 0 0 0 1 2 2 3 3 6 7 5 4 2 1 0 0 0 0 0 0 0 0 0
1 1 0 0 0 0 0 0 0 0 0 0 0 0 0 0 0 0 0 0 0 1 1 1 0 0 0 0 2 4 4 3 1 0 0 0 0 0 0 0 0 0 0

GEFSMA_con_probscp_090.txt.gz
Probability
78 77 77 80 80 77 73 67 63 60 54 41 31 27 27 23 17 18 28 45 56 59 53 42 29 18 13 12 10 6 6 6 7 6 4 3 3 1 0 0 0 0 0
84 82 79 77 78 76 72 68 64 62 55 44 35 31 31 28 24 23 30 41 50 53 50 41 30 20 15 14 12 9 8 10 10 8 5 3 2 2 1 1 1 0 0
85 83 79 76 77 74 68 64 63 60 53 45 40 37 37 37 33 29 31 36 41 42 40 37 33 26 19 15 13 12 13 16 16 12 6 2 2 2 1 2 3 1 0
75 73 71 71 71 67 59 56 55 51 45 41 40 39 39 38 36 33 32 35 37 36 34 34 34 30 23 17 16 17 19 22 21 15 9 6 5 3 1 2 3 2 1
57 57 58 60 58 53 49 46 45 41 35 32 31 32 31 32 32 32 32 34 36 37 35 33 31 27 23 22 22 23 24 26 24 18 13 12 11 6 2 1 1 2 2
43 43 45 46 45 43 40 38 35 31 27 22 18 17 19 20 23 25 26 27 30 34 35 34 31 26 23 24 25 25 25 26 23 19 16 16 15 10 3 1 0 1 2
35 34 33 35 35 36 34 31 28 24 20 16 10 8 8 10 13 17 20 20 20 24 30 33 35 32 27 23 22 23 24 23 21 19 17 17 16 12 7 2 0 0 1
27 25 26 27 30 31 29 27 25 22 18 13 9 7 5 4 6 10 15 16 14 16 23 29 33 35 32 25 19 17 19 20 19 20 20 19 16 13 10 6 3 1 0
16 18 20 22 26 27 26 25 25 22 16 11 10 10 10 10 9 10 10 11 12 14 18 21 25 30 31 28 21 14 14 15 19 21 21 19 16 12 9 9 6 3 1
9 12 15 18 21 22 20 20 20 19 15 12 12 14 16 17 15 11 6 6 11 16 17 17 19 24 28 28 23 16 10 10 14 19 19 19 17 12 9 10 9 6 4
5 7 11 14 15 14 12 12 13 13 12 12 14 16 17 18 16 10 4 4 9 15 17 17 18 22 25 25 21 15 10 6 9 13 15 17 17 14 11 11 10 8 7
3 4 6 9 10 7 6 6 8 9 9 10 12 14 16 18 17 12 7 4 6 12 17 19 21 23 25 23 17 11 8 5 4 6 9 10 12 13 12 10 9 8 8
2 2 3 5 4 3 2 3 4 5 5 5 7 10 13 16 18 15 11 8 7 12 18 21 24 25 26 25 16 8 6 3 1 1 3 4 6 8 8 7 6 6 8
2 2 2 2 2 1 1 1 1 2 2 2 4 7 8 10 14 15 14 14 12 12 16 21 23 25 29 27 15 6 4 1 0 0 0 1 2 3 4 3 3 3 4
4 4 2 1 1 1 0 0 0 0 0 1 3 5 6 8 11 14 17 19 18 13 13 19 23 27 30 24 11 6 5 2 0 0 0 0 0 1 1 1 1 1 1
10 9 6 3 2 1 0 0 0 0 0 2 3 4 5 8 10 12 16 19 21 17 14 17 24 31 33 22 11 10 8 3 0 0 0 0 0 0 0 0 0 0 0
12 13 11 6 3 1 0 0 0 0 0 1 1 2 3 6 8 10 13 16 18 17 14 16 24 35 38 27 17 14 10 3 0 0 0 0 0 0 0 0 0 0 0
10 12 12 7 3 0 0 0 0 0 0 0 0 0 1 3 7 10 12 11 11 11 12 16 24 33 38 33 23 15 9 4 2 1 0 0 0 0 0 0 0 0 0
10 12 11 7 3 0 0 1 1 0 0 0 0 0 0 1 5 9 9 8 8 9 12 16 20 26 31 30 23 14 10 8 4 1 0 0 0 0 0 0 0 0 0
11 10 9 7 5 1 0 1 1 1 0 0 0 0 0 1 3 4 4 5 7 8 10 13 14 17 22 24 20 13 12 11 6 2 1 0 0 0 0 0 0 0 0
6 6 6 6 5 2 0 0 0 1 2 1 0 0 0 0 1 1 1 2 4 5 6 8 9 11 15 17 15 12 12 12 9 5 3 2 1 0 0 0 0 0 0
2 3 4 5 4 2 0 0 0 1 2 3 1 0 0 0 0 0 0 0 1 1 2 4 6 8 9 10 10 9 10 10 9 8 6 4 2 1 0 0 0 0 0
0 1 2 3 3 2 1 0 0 0 1 2 2 0 0 0 0 0 0 0 0 0 0 2 3 5 5 5 5 6 6 6 7 8 7 5 3 1 0 0 0 0 0
0 0 1 1 2 1 0 0 0 0 0 1 1 0 0 0 0 0 0 0 0 0 0 0 1 3 3 2 2 2 3 3 4 4 4 3 1 0 0 0 0 0 0
0 0 0 0 0 0 0 0 0 0 0 0 0 0 1 0 0 0 0 0 0 0 0 0 0 1 1 0 0 0 1 1 1 1 2 1 0 0 0 0 0 0 0
0 0 0 0 0 0 0 0 0 0 0 0 0 0 1 0 0 0 0 0 0 0 0 0 0 0 0 0 0 0 0 0 0 0 1 0 0 0 0 0 0 0 0

GEFSMA_con_probscp_096.txt.gz
Probability
25 24 22 24 33 44 48 45 44 43 36 26 21 19 16 16 15 11 6 6 13 27 40 45 42 37 33 27 22 17 10 5 2 1 0 0 0 0 0 0 0 0 0
28 28 26 26 32 41 43 40 37 36 33 26 21 19 16 16 16 10 5 6 14 27 39 44 41 34 30 27 23 19 13 10 7 4 1 0 0 0 0 0 0 0 0
30 31 29 27 31 36 36 31 28 28 28 26 23 20 17 17 16 11 7 8 13 21 31 38 36 30 27 24 21 19 17 14 12 7 3 1 0 0 1 0 0 0 0
27 26 24 23 24 26 25 23 22 21 23 23 20 18 16 15 13 10 9 11 12 13 19 25 27 26 24 19 16 16 17 17 14 9 5 2 1 0 0 0 0 0 0
17 16 14 13 13 12 13 15 15 15 16 16 12 11 11 10 9 8 8 9 9 9 10 13 17 21 20 16 14 14 16 17 15 11 6 3 2 1 0 0 0 0 0
7 7 7 6 5 5 6 9 10 9 10 9 6 6 6 6 6 5 5 5 5 6 5 6 10 14 15 14 14 13 13 13 14 12 8 6 4 2 1 1 1 0 0
3 4 4 4 3 3 4 6 7 7 6 5 4 3 4 4 4 4 3 3 3 3 2 2 5 9 11 11 11 11 10 10 10 10 9 9 8 6 4 3 2 1 0
1 2 3 3 3 3 4 5 6 6 5 4 3 3 3 3 3 2 2 2 2 3 3 3 4 6 8 9 8 7 7 8 10 10 9 10 11 12 9 5 3 2 1
0 1 1 1 1 2 3 3 4 3 3 2 2 2 2 2 1 1 1 1 1 1 2 3 3 3 4 7 6 4 3 6 10 10 9 9 12 13 11 7 4 2 1
0 0 0 0 0 1 1 1 2 1 1 1 1 1 1 1 0 0 0 0 0 0 1 1 1 1 1 2 3 2 1 2 5 8 8 10 12 13 11 7 5 3 2
0 0 1 0 0 0 0 0 0 0 0 0 0 0 0 0 0 0 0 0 0 0 0 0 0 0 0 1 2 1 1 0 2 5 8 11 13 14 11 7 6 5 3
0 0 0 0 0 0 0 0 0 0 0 0 0 0 0 0 0 0 0 0 0 0 0 0 0 0 0 2 3 2 1 0 1 3 6 8 11 11 9 6 6 5 4
0 0 0 0 0 0 0 0 0 0 0 0 0 0 0 0 0 0 0 0 0 0 0 0 0 0 0 1 2 2 1 0 0 1 3 5 6 7 6 5 5 5 4
0 0 0 0 0 0 0 0 0 0 0 0 0 0 0 0 0 0 0 0 0 0 0 0 0 0 0 0 1 1 0 0 0 1 2 3 3 3 3 3 3 2 1
0 0 0 0 0 0 0 0 0 0 0 0 0 0 0 0 0 0 0 0 0 0 0 0 0 0 0 0 0 0 0 0 0 0 1 1 1 1 1 1 1 0 0
0 0 0 0 0 0 0 0 0 0 0 0 0 0 0 0 0 0 0 0 0 0 0 0 0 0 0 0 0 0 0 0 0 0 0 0 0 0 0 0 0 0 0
0 0 0 0 0 0 0 0 0 0 0 0 0 0 0 0 0 0 0 0 0 0 0 0 0 0 0 0 0 0 0 0 0 0 0 0 0 0 0 0 0 0 0
0 0 0 0 0 0 0 0 0 0 0 0 0 0 0 0 0 0 0 0 0 0 0 0 0 0 0 0 0 0 0 0 0 0 0 0 0 0 0 0 0 0 0
0 0 0 0 0 0 0 0 0 0 0 0 0 0 0 0 0 0 0 0 0 0 0 0 0 0 1 0 0 0 0 0 0 0 0 0 0 0 0 0 0 0 0
0 0 0 0 0 0 0 0 0 0 0 0 0 0 0 0 0 0 0 0 0 0 0 0 0 1 1 0 0 0 0 0 0 0 0 0 0 0 0 0 0 0 0
0 0 0 0 0 0 0 0 0 0 0 0 0 0 0 0 0 0 0 0 0 0 0 0 0 1 2 1 0 0 0 0 0 0 0 0 0 0 0 0 0 0 0
0 0 0 0 0 0 0 0 0 0 0 0 0 0 0 0 0 0 0 0 0 0 0 0 0 1 2 1 0 0 0 0 0 0 0 0 0 0 0 0 0 0 0
0 0 0 0 0 0 0 0 0 0 0 0 0 0 0 0 0 0 0 0 0 0 0 0 0 1 2 2 1 0 0 0 0 0 0 0 0 0 0 0 0 0 0
0 0 0 0 0 0 0 0 0 0 0 0 0 0 0 0 0 0 0 0 0 0 0 0 0 0 1 1 1 0 0 0 0 0 0 0 0 0 0 0 0 0 0
0 0 0 0 0 0 0 0 0 0 0 0 0 0 0 0 0 0 0 0 0 0 0 0 0 0 0 0 0 0 0 0 0 0 0 0 0 0 0 0 0 0 0
0 0 0 0 0 0 0 0 0 0 0 0 0 0 0 0 0 0 0 0 0 0 0 0 0 0 0 0 0 0 0 0 0 0 0 0 0 0 0 0 0 0 0

GEFSMA_con_probscp_102.txt.gz
Probability
24 23 19 14 9 7 9 12 16 21 26 26 20 11 6 4 2 1 4 5 7 8 7 6 4 3 4 4 3 1 0 0 0 0 0 0 0 0 0 0 0 0 0
19 18 14 11 8 7 10 14 16 19 25 27 22 13 9 7 6 4 4 7 10 12 12 9 7 6 6 5 3 2 1 0 0 0 0 0 0 0 0 0 0 0 0
11 10 9 8 8 6 10 15 15 17 21 24 20 15 14 13 12 8 7 9 13 15 14 13 11 11 11 8 4 3 3 3 2 1 0 0 0 0 0 0 0 0 0
4 4 5 6 5 4 8 12 13 13 15 16 15 15 15 15 13 10 9 10 11 12 14 14 14 14 14 11 6 4 7 7 6 4 2 1 1 0 0 0 0 0 0
1 1 3 3 2 2 4 7 8 8 10 11 11 11 11 10 8 7 7 7 7 9 12 14 15 14 13 12 10 8 10 11 10 8 5 3 2 1 0 0 0 0 0
0 1 2 2 1 1 1 1 2 3 4 6 8 8 7 5 4 3 4 4 5 7 9 11 15 16 15 14 14 13 12 12 14 12 9 7 6 3 1 0 0 0 0
0 0 1 1 1 0 0 0 0 0 1 2 5 6 5 3 2 1 2 4 5 6 7 8 12 17 20 19 16 15 14 14 17 18 15 12 10 7 3 1 0 1 1
0 0 0 0 0 0 0 0 0 0 0 1 3 5 5 3 1 1 2 3 4 6 7 7 10 14 18 19 16 13 14 17 20 23 20 16 14 12 7 2 0 1 1
0 0 0 0 0 0 0 0 0 0 0 0 1 3 3 2 1 0 1 1 3 5 7 8 8 9 12 13 11 9 11 16 22 25 25 21 19 16 11 5 1 0 1
0 0 0 0 0 0 0 0 0 0 0 0 0 1 1 1 0 0 0 0 1 3 5 6 6 7 8 7 6 4 5 9 15 22 27 28 25 20 14 8 4 2 1
0 0 0 0 0 0 0 0 0 0 0 0 0 0 0 0 0 0 0 0 0 1 2 4 5 7 7 5 4 3 2 2 6 13 22 26 25 21 16 12 8 5 3
0 0 0 0 0 0 0 0 0 0 0 0 0 0 0 0 0 0 0 0 0 0 1 3 4 6 6 5 5 4 2 1 1 4 10 16 19 19 16 14 11 8 6
0 0 0 0 0 0 0 0 0 0 0 0 0 0 0 0 0 0 0 0 0 0 1 2 4 5 5 6 6 4 2 1 0 1 2 5 10 14 15 14 12 10 8
0 0 0 0 0 0 0 0 0 0 0 0 0 0 0 0 0 0 0 0 0 0 0 1 3 4 6 6 5 3 2 1 0 0 0 1 4 8 10 10 9 8 8
0 0 0 0 0 0 0 0 0 0 0 0 0 0 0 0 0 0 0 0 0 0 0 0 1 3 5 5 4 3 2 1 0 0 0 0 1 3 4 4 3 3 4
0 0 0 0 0 0 0 0 0 0 0 0 0 0 0 0 0 0 0 0 0 0 0 0 0 1 3 4 3 3 3 1 1 0 0 0 0 0 0 0 0 0 1
0 0 0 0 0 0 0 0 0 0 0 0 0 0 0 0 0 0 0 0 0 0 0 0 0 0 1 2 3 3 3 3 2 1 0 0 0 0 0 0 0 0 0
0 0 0 0 0 0 0 0 0 0 0 0 0 0 0 0 0 0 0 0 0 0 0 0 0 0 0 1 1 2 3 3 2 1 0 0 0 0 0 0 0 0 0
0 0 0 0 0 0 0 0 0 0 0 0 0 0 0 0 0 0 0 0 0 0 0 0 0 0 0 0 0 1 1 2 1 1 0 0 0 0 0 0 0 0 0
0 0 0 0 0 0 0 0 0 0 0 0 0 0 0 0 0 0 0 0 0 0 0 0 0 0 0 0 0 0 1 1 1 1 1 0 0 0 0 0 0 0 0
0 0 0 0 0 0 0 0 0 0 0 0 0 0 0 0 0 0 0 0 0 0 0 0 0 0 0 0 0 1 1 0 1 2 2 1 0 0 0 0 0 0 0
0 0 0 0 0 0 0 0 0 0 0 0 0 0 0 0 0 0 0 0 0 0 0 0 0 0 0 0 0 0 0 0 1 2 3 2 1 0 0 0 0 0 0
0 0 0 0 0 0 0 0 0 0 0 0 0 0 0 0 0 0 0 0 0 0 0 0 0 0 0 0 0 0 0 0 1 2 3 3 2 1 0 0 0 0 0
0 0 0 0 0 0 0 0 0 0 0 0 0 0 0 0 0 0 0 0 0 0 0 0 0 0 0 0 0 0 0 0 0 1 3 3 3 1 0 0 0 0 0
0 0 0 0 0 0 0 0 0 0 0 0 0 0 0 0 0 0 0 0 0 0 0 0 0 0 0 0 0 0 0 0 0 1 2 2 1 0 0 0 0 0 0
0 0 0 0 0 0 0 0 0 0 0 0 0 0 0 0 0 0 0 0 0 0 0 0 0 0 0 0 0 0 0 0 0 0 1 1 0 0 0 0 0 0 0

GEFSMA_con_probscp_108.txt.gz
Probability
33 36 40 37 31 29 30 34 36 36 34 26 17 12 11 9 7 7 9 14 13 7 4 2 1 2 2 2 3 3 4 3 2 0 0 0 0 0 0 0 0 0 0
28 30 34 33 29 26 28 31 33 34 34 28 18 14 13 13 11 10 11 12 11 7 5 4 4 4 4 3 3 4 5 5 4 2 1 0 0 0 0 0 0 0 0
18 19 22 23 23 22 23 25 24 25 28 26 22 19 19 18 16 14 13 14 12 9 8 7 8 11 9 6 5 7 9 10 9 6 3 0 0 0 0 0 0 0 0
9 10 13 15 16 16 17 17 17 18 20 22 22 22 22 21 18 15 13 16 18 17 15 14 15 19 19 15 13 15 17 17 15 12 7 2 1 0 0 0 0 0 0
5 7 9 11 11 13 13 13 14 16 18 18 16 16 18 18 17 15 13 15 21 25 24 22 22 25 27 29 28 28 26 25 24 20 13 7 3 1 0 0 0 0 0
6 6 7 8 9 11 11 10 11 14 16 15 11 9 10 11 14 15 13 14 19 24 25 25 28 30 32 37 42 42 38 34 33 29 22 14 8 4 1 0 0 0 0
5 4 4 5 8 9 8 8 10 10 11 13 11 7 4 6 10 12 12 14 16 19 23 26 31 37 40 41 44 47 47 44 40 36 32 24 16 9 4 1 0 0 0
3 2 2 2 4 5 4 4 7 7 8 10 10 6 3 5 7 8 10 13 16 20 25 28 32 38 44 50 46 45 50 54 50 43 38 33 25 17 10 4 1 0 0
1 1 1 1 1 2 2 3 4 4 5 7 7 5 3 4 6 7 8 11 15 20 23 25 27 31 40 52 51 42 46 56 57 51 45 40 33 26 17 9 4 1 0
3 3 2 2 2 2 3 4 3 3 3 4 6 5 2 3 5 5 6 8 11 14 17 19 22 25 33 47 51 39 34 41 48 52 52 47 39 33 25 16 10 5 2
4 4 4 5 5 5 6 6 4 3 2 2 4 4 1 1 2 2 3 5 7 8 9 14 19 24 29 39 41 29 20 22 28 38 46 48 44 38 31 24 17 10 5
4 4 4 6 7 6 6 6 5 5 4 4 3 3 1 0 1 1 1 3 5 5 6 10 15 21 26 31 29 20 13 11 12 20 31 41 45 42 36 32 27 19 13
4 5 6 7 7 6 6 6 6 6 5 5 4 4 2 1 1 1 0 1 2 2 4 7 11 16 21 27 24 15 10 8 5 7 16 26 34 37 37 37 35 30 24
5 6 7 7 6 6 6 6 6 5 5 4 4 4 3 2 2 2 1 0 0 1 3 6 10 14 20 25 20 13 11 8 2 2 5 10 17 24 27 29 31 30 28
3 4 4 4 4 5 6 6 5 4 4 4 4 4 3 3 2 2 1 0 0 2 3 6 10 14 19 19 13 13 14 8 2 1 0 2 5 9 11 12 14 17 17
1 1 1 1 2 3 4 4 2 2 2 3 3 3 4 4 4 3 1 0 0 1 3 6 9 12 15 13 13 17 17 11 4 1 0 0 1 1 2 2 2 4 4
0 0 0 0 1 1 1 1 0 0 1 1 1 2 3 3 4 3 2 1 1 2 4 7 9 10 12 13 16 19 18 16 10 3 0 0 0 0 0 0 0 0 0
0 0 0 0 0 0 0 0 0 0 0 0 0 1 1 1 2 3 3 3 3 3 4 6 9 10 11 13 16 17 16 17 13 4 0 0 0 0 0 0 0 0 0
0 0 0 0 0 0 0 0 0 0 0 0 0 0 0 0 1 1 2 3 3 3 4 5 7 8 8 9 12 13 14 16 12 4 0 0 0 0 0 0 0 0 0
0 0 0 0 0 0 0 0 0 0 0 0 0 0 0 0 0 0 1 2 4 5 5 5 4 5 5 7 9 10 13 16 12 6 3 2 1 1 1 0 0 0 0
0 0 0 0 0 0 0 0 0 0 0 0 0 0 0 0 0 0 0 2 4 6 6 5 3 2 4 5 7 8 10 13 13 12 11 8 6 6 5 3 1 0 0
0 0 0 0 0 0 0 0 0 0 0 0 0 0 0 0 0 0 0 1 2 4 5 5 3 2 2 3 4 5 5 7 11 16 18 18 17 15 12 6 1 0 0
0 0 0 0 0 0 0 0 0 0 0 0 0 0 0 0 0 0 0 0 0 1 2 3 3 2 1 1 2 3 4 6 10 16 20 22 23 21 15 7 2 0 0
0 0 0 0 0 0 0 0 0 0 0 0 0 0 0 0 0 0 0 0 0 0 0 1 1 1 1 1 1 2 3 6 10 14 17 18 19 18 13 7 2 0 0
0 0 0 0 0 0 0 0 0 0 0 0 0 0 0 0 0 0 0 0 0 0 0 0 0 0 0 0 0 1 2 4 6 9 12 13 13 13 10 6 2 0 0
0 0 0 0 0 0 0 0 0 0 0 0 0 0 0 0 0 0 0 0 0 0 0 0 0 0 0 0 0 1 1 2 2 5 10 11 10 11 10 6 2 1 0

GEFSMA_con_probscp_114.txt.gz
Probability
36 33 32 34 34 35 38 38 35 31 26 21 17 17 19 18 14 18 30 41 44 45 45 36 24 16 11 10 10 9 6 2 0 0 0 0 0 0 0 0 0 0 0
35 32 30 32 34 37 39 38 33 28 24 20 17 17 19 18 14 17 28 37 43 45 46 43 37 28 20 15 13 12 10 6 3 1 0 0 0 0 0 0 0 0 0
28 26 25 27 30 33 34 31 26 22 18 16 16 16 16 15 14 16 22 32 39 40 42 48 53 50 40 28 20 17 16 12 8 5 3 1 0 0 0 0 0 0 0
16 16 17 18 19 21 22 20 18 16 13 13 14 12 11 12 14 16 18 26 35 36 38 48 59 64 58 45 34 30 28 24 18 13 9 5 2 1 0 0 0 0 0
6 8 10 10 10 12 14 13 12 11 12 12 11 9 8 11 14 17 18 23 30 36 38 44 55 62 61 57 52 48 45 42 36 26 18 13 7 3 1 0 0 0 0
4 6 8 8 8 10 11 11 11 11 12 12 10 7 7 10 15 17 19 21 26 30 32 39 52 58 59 62 65 63 59 58 54 44 34 26 18 10 4 2 1 0 0
6 7 8 8 8 9 11 11 11 12 11 10 9 7 6 8 12 16 18 20 21 24 27 35 50 60 59 59 63 67 67 65 64 61 55 48 38 23 10 5 3 1 0
5 5 7 8 9 9 10 10 10 10 10 10 10 8 6 6 9 12 15 17 17 22 28 34 45 55 56 53 53 59 67 70 70 71 71 66 57 41 22 10 6 3 1
5 6 7 8 9 9 8 8 8 8 7 8 10 9 7 7 7 8 10 12 15 19 24 28 34 42 48 49 49 49 54 63 69 74 75 73 66 54 38 24 15 7 2
9 9 10 11 12 11 8 6 6 6 5 6 8 8 7 6 6 5 6 8 11 15 17 18 23 33 41 46 46 39 34 42 55 66 71 71 68 61 51 40 27 13 5
12 12 13 15 17 14 9 7 6 6 6 5 5 5 5 5 4 3 3 4 6 10 12 11 16 26 34 37 36 26 19 21 33 49 60 64 67 65 58 49 35 19 10
14 15 16 19 19 16 12 9 9 9 8 6 4 4 5 5 5 4 3 1 2 4 7 9 13 19 23 25 23 16 10 10 14 26 41 53 61 63 58 51 41 29 20
11 12 13 15 16 13 11 10 11 10 8 5 4 4 6 6 6 5 3 1 0 1 3 6 10 13 15 18 17 10 6 4 4 10 22 36 46 50 49 47 43 38 35
5 6 7 8 8 7 6 7 9 9 6 4 4 5 6 6 5 5 3 2 1 1 2 4 7 9 12 15 13 8 5 3 1 3 9 19 28 33 35 36 37 38 36
2 2 3 4 4 3 3 4 5 6 5 4 4 4 5 6 6 5 3 3 2 1 1 2 4 6 9 11 9 7 7 3 0 1 2 6 12 17 19 21 23 23 22
2 2 2 2 2 3 3 3 3 4 4 4 3 3 4 5 6 5 4 3 3 2 1 1 2 3 5 5 5 7 7 3 0 0 0 1 3 6 8 9 9 7 6
3 2 1 1 1 1 2 3 3 3 3 3 3 3 3 4 5 5 4 3 3 2 1 0 0 2 3 3 4 6 6 3 1 0 0 0 1 2 3 3 2 1 0
4 3 3 2 1 1 2 2 1 2 2 3 3 3 3 3 4 5 5 3 2 1 0 0 0 2 3 4 5 5 4 3 1 0 0 0 0 1 1 1 1 0 0
4 4 4 4 3 2 2 1 1 1 1 1 2 2 2 2 3 4 4 3 2 2 1 0 0 1 2 4 5 4 3 3 2 1 0 0 0 0 0 0 0 0 0
3 3 4 4 3 2 1 1 0 0 0 0 1 1 1 1 1 2 2 2 2 2 1 0 0 0 1 2 3 3 2 3 2 1 0 0 0 0 0 0 0 0 0
3 3 3 3 3 2 0 0 0 0 0 0 0 0 0 0 0 0 0 1 1 1 1 1 1 0 0 1 1 1 1 1 2 1 1 0 0 0 0 0 0 0 0
4 4 3 3 3 2 0 0 0 0 0 0 0 0 0 0 0 0 0 0 0 0 1 1 1 1 0 0 0 0 0 0 1 2 3 2 2 2 2 1 0 0 0
6 5 4 3 3 2 1 0 0 0 0 0 0 0 0 0 0 0 0 0 0 0 0 1 1 1 1 0 0 0 0 0 0 2 3 3 4 5 3 2 0 0 0
8 7 6 4 3 2 1 0 0 0 0 0 0 0 0 0 0 0 0 0 0 0 0 0 0 0 0 0 0 0 0 0 0 1 2 3 4 4 3 3 1 0 0
9 8 6 5 4 2 1 0 0 0 0 0 0 0 0 0 0 0 0 0 0 0 0 0 0 0 0 0 0 0 0 0 0 1 2 2 2 2 2 2 1 0 0
9 7 5 4 4 2 1 0 0 0 0 0 0 0 0 0 0 0 0 0 0 0 0 0 0 0 0 0 0 0 0 0 0 1 1 1 1 1 1 2 2 1 0

GEFSMA_con_probscp_120.txt.gz
Probability
1 3 3 2 2 3 3 2 2 1 1 1 1 1 3 4 4 3 3 8 17 18 14 12 9 6 5 4 4 3 2 1 1 0 0 0 0 0 0 0 0 0 0
1 1 1 1 1 2 2 2 2 2 1 1 0 1 2 2 2 1 2 6 13 15 13 11 9 8 6 6 5 6 6 5 3 1 1 0 0 0 0 0 0 0 0
0 0 0 0 0 1 1 2 2 2 2 1 1 0 0 0 0 0 1 4 7 10 11 11 11 13 12 9 8 9 11 10 7 4 2 1 1 0 0 0 0 0 0
0 0 0 0 0 0 1 1 2 2 2 2 1 0 0 0 1 0 1 2 5 7 8 8 13 19 20 16 13 13 15 16 14 9 5 3 2 1 0 0 0 0 0
0 0 0 0 0 0 0 0 1 1 2 1 1 0 0 1 1 0 0 2 4 7 7 7 13 21 24 24 22 21 20 20 19 15 10 6 4 2 1 0 0 0 0
0 0 0 0 0 0 0 0 0 0 0 0 0 0 0 1 2 1 1 2 4 6 6 6 10 15 20 26 31 32 30 26 24 22 18 13 8 4 1 0 0 0 0
0 0 0 0 0 0 0 0 0 0 0 0 0 0 0 1 2 2 2 3 3 4 4 5 7 10 13 20 29 35 38 36 34 33 30 25 18 12 5 1 0 0 0
0 0 0 0 0 0 0 0 0 0 0 0 0 0 0 0 1 2 2 2 2 3 3 4 5 7 10 14 20 27 36 43 44 44 44 40 33 25 15 6 1 0 0
0 0 0 0 0 0 0 0 0 0 0 0 0 0 0 0 0 1 1 1 2 3 3 3 3 4 7 9 12 17 26 38 47 51 51 50 47 39 28 16 7 2 0
0 0 0 0 0 0 0 0 0 0 0 0 0 0 0 0 0 0 0 1 1 2 3 3 3 4 4 5 6 11 17 26 37 46 50 53 55 52 42 29 16 6 1
0 0 0 0 0 0 0 0 0 0 0 0 0 0 0 0 0 0 0 0 0 1 1 2 3 4 4 4 4 6 11 14 21 30 40 48 55 59 55 42 24 10 4
0 0 0 0 0 0 0 0 0 0 0 0 0 0 0 0 0 0 0 0 0 0 0 1 2 3 3 3 4 6 7 7 7 13 23 34 46 57 60 50 33 18 12
0 0 0 0 0 0 0 0 0 0 0 0 0 0 0 0 0 0 0 0 0 0 0 0 1 1 1 3 4 5 5 4 2 3 9 19 30 42 51 51 43 35 30
0 0 0 0 0 0 0 0 0 0 0 0 0 0 0 0 0 0 0 0 0 0 0 0 0 0 0 1 2 3 4 3 1 0 3 8 14 22 31 39 43 44 43
0 0 0 0 0 0 0 0 0 0 0 0 0 0 0 0 0 0 0 0 0 0 0 0 0 0 0 0 0 1 3 2 0 0 1 2 4 7 12 18 24 29 30
0 0 0 0 0 0 0 0 0 0 0 0 0 0 0 0 0 0 0 0 0 0 0 0 0 0 0 0 0 0 1 0 0 0 0 0 1 1 2 3 6 9 9
0 0 0 0 0 0 0 0 0 0 0 0 0 0 0 0 0 0 0 0 0 0 0 0 0 0 0 0 0 0 0 0 0 0 0 0 0 0 0 0 0 1 1
0 0 0 0 0 0 0 0 0 0 0 0 0 0 0 0 0 0 0 0 0 0 0 0 0 0 0 0 0 0 1 1 2 1 0 0 0 0 0 0 0 0 0
0 0 0 0 0 0 0 0 0 0 0 0 0 0 0 0 0 0 0 0 0 0 0 0 0 0 0 0 0 0 1 2 3 2 1 0 0 0 0 0 0 0 0
0 0 0 0 0 0 0 0 0 0 0 0 0 0 0 0 0 0 0 0 0 0 0 0 0 0 0 0 0 0 1 1 2 2 1 0 0 0 0 0 0 0 0
0 0 0 0 0 0 0 0 0 0 0 0 0 0 0 0 0 0 0 0 0 0 0 0 0 0 0 0 0 0 0 0 1 1 0 0 0 0 0 0 0 0 0
0 0 0 0 0 0 0 0 0 0 0 0 0 0 0 0 0 0 0 0 0 0 0 0 0 0 0 0 0 0 0 0 0 0 0 0 0 0 0 0 0 0 0
0 0 0 0 0 0 0 0 0 0 0 0 0 0 0 0 0 0 0 0 0 0 0 0 0 0 0 0 0 0 0 0 0 0 0 0 0 0 0 0 0 0 0
0 0 0 0 0 0 0 0 0 0 0 0 0 0 0 0 0 0 0 0 0 0 0 0 0 0 0 0 0 0 0 0 0 0 0 0 0 0 0 0 0 0 0
0 0 0 0 0 0 0 0 0 0 0 0 0 0 0 0 0 0 0 0 0 0 0 0 0 0 0 0 0 0 0 0 0 0 0 0 0 0 0 0 0 0 0
0 0 0 0 0 0 0 0 0 0 0 0 0 0 0 0 0 0 0 0 0 0 0 0 0 0 0 0 0 0 0 0 0 0 0 0 0 0 0 0 0 0 0